铱星星座 119星 (IRIDIUM 119)

导读 | 豆包AI

IRIDIUM 119是美国于2017年10月9日发射的低轨移动通信卫星,隶属于第二代“铱星Next”星座系统,接替原始铱星卫星提供全球卫星通信服务。作为商业低轨卫星通信的先驱,该卫星可实现全球范围语音通话、数据传输及应急通信服务,为偏远地区、航海航空等场景提供可靠通信保障,延续了铱星系统全球无缝覆盖的服务能力。

Basic Information
目录编号:
42959
目录名称:
IRIDIUM 119
国际标识:
2017-061E
轨道中心:
EARTH
卫星名称:
铱星星座 119星
卫星全名:
铱星星座 119星 (IRIDIUM 119)
卫星状态:
在轨 (已飞行3078 天)
发射日期:
2017-10-09 UTC
国别 :
美国 (US)
星等 :
--
Orbit Information
数据来源 国际轨道数据 AOE轨道数据
星历时间 2026-03-13T17:42:10+0800
17小时前
查看轨道信息
2026-03-12T06:00:00+0800
2天前
查看轨道信息
半长轴 7155.799km 7155.788km
偏心率 0.0002148 0.0002194
轨道倾角 86.392° 86.393°
近地点辐角 84.723° 83.179°
升交点赤经 65.287° 65.911°
平近点角 275.421° 160.963°
近地点 776.124km 776.081km
远地点 779.2km 779.221km
周期 100.403分钟 100.403分钟
每日圈数 14.342195 14.342228
Detailed Information
平衡模式:
三轴稳定
覆盖范围:
全球
运营商:
铱星通信公司
运营商所在国:
美国
制造商(研发单位):
阿莱尼亚宇航公司
制造商所在国:
意大利
使用方式:
暂无
Satellite Introduction
铱星(Iridium)是由共66个运作中的通信卫星组成的卫星通信系统。这个系统原本规划77个通信卫星,所以用原子序数为77的铱元素来命名。铱卫星允许人们使用手持型电子设备进行全球性的语音及数据通讯。该卫星仍在工作。
2D Orbit Map
3D Orbit Map
Orbit Altitude Analysis Chart
Orbit Inclination Analysis Chart
Orbit Comprehensive Analysis Chart
View Comprehensive Chart